Погода в Шуурмаке

Россия / Республика Тыва     50°39′03″N   95°19′35″E
темп.,
°C
ветер,
м/с
пор.,
м/с
влажн.,
%
обл.,
%
осадки,
мм/ч
давл.,
гПа
погр.,
м
7 марта, вс
вс701:00−11ююз34810 0.0 102671
04:00−11ююз33780 0.0 102552
07:00−12ююз33760 0.0 102670
10:00−6ююз366820 0.0 1024297
13:00−3юз366546 0.0 1023565
16:00−4юз3568100 0.0 1023453
19:00−11юз338196 0.0 102546
22:00−11юз337759 0.0 102754
8 марта, пн
пн801:00−11ююз337865 0.0 102844
04:00−11ююз2277100 0.0 102828
07:00−11ююз237998 0.0 103029
10:00−5ююз237214 0.0 1028232
13:00−1ююз24657 0.0 1026517
16:00−2юз35640 0.0 1023440
19:00−9ююз33750 0.0 102558
22:00−10ююз43760 0.0 102673
9 марта, вт
вт901:00−10ююз45790 0.0 102690
04:00−10юз347967 0.0 102593
07:00−10юз347983 0.0 102897
10:00−6ююз1271100 0.0 1029222
13:00−2ююз126883 0.0 1028547
16:00−2юз12710 0.0 1027467
19:00−9юз23840 0.0 102930
22:00−9ююз23720 0.0 103132
10 марта, ср
ср1001:00−9ююз23710 0.0 103026
04:00−9ююз22690 0.0 102821
07:00−10ююз22690 0.0 102823
10:00−3ююз23640 0.0 1026262
13:00−1юз13630 0.0 1023533
16:00−1юз13650 0.0 1022439
19:00−9ююз33790 0.0 102436
22:00−10ююз33740 0.0 102659
11 марта, чт
чт1101:00−9ююз44720 0.0 102677
04:00−9ююз34760 0.0 102575
07:00−9ююз457418 0.0 102599
10:00−3ююз486047 0.0 1023337
13:00+1ююз595557 0.0 1020543
16:000ююз366092 0.0 1018348
19:00−4ююз336995 0.0 101850
22:00−4юз3382100 0.1 101762